,,Stat5,,Stat1,,Stat2,,Stat3,,Stat4,,Wind1,,Wind1,
time,status,PA1M_AVG,status,PR1M_SUM,status,RH1M_AVG,status,SR1M_AVG,status,TA1M_AVG,status,W1dAve1m,status,W1sAve1m,
2000-09-08, 00:00:00,VALID,918.194,VALID,0,VALID,97.5918,VALID,0,VALID,19.7069,VALID,181,VALID,0.56593,
2000-09-08, 00:01:00,VALID,918.176,VALID,0,VALID,97.6249,VALID,0,VALID,19.6587,VALID,168,VALID,0.639757,
2000-09-08, 00:02:00,VALID,918.172,VALID,0,VALID,97.7877,VALID,-0.0169808,VALID,19.6396,VALID,170,VALID,0.648003,
2000-09-08, 00:03:00,VALID,918.141,VALID,0,VALID,97.8741,VALID,0,VALID,19.6165,VALID,173,VALID,0.596073,
2000-09-08, 00:04:00,VALID,918.13,VALID,0,VALID,97.9593,VALID,0.0169808,VALID,19.6003,VALID,169,VALID,0.680304,
2000-09-08, 00:05:00,VALID,918.123,VALID,0,VALID,97.939,VALID,0,VALID,19.5812,VALID,167,VALID,0.78639,
2000-09-08, 00:06:00,VALID,918.11,VALID,0,VALID,97.9008,VALID,0,VALID,19.5526,VALID,168,VALID,0.886513,
2000-09-08, 00:07:00,VALID,918.107,VALID,0,VALID,97.9428,VALID,0.0169808,VALID,19.5228,VALID,170,VALID,0.828742,
2000-09-08, 00:08:00,VALID,918.101,VALID,0,VALID,97.8487,VALID,0.0339617,VALID,19.494,VALID,173,VALID,0.613982,
2000-09-08, 00:09:00,VALID,918.096,VALID,0,VALID,97.6936,VALID,0,VALID,19.446,VALID,197,VALID,0.50884,
2000-09-08, 00:10:00,VALID,918.093,VALID,0,VALID,97.7228,VALID,0,VALID,19.4105,VALID,211,VALID,0.856971,
2000-09-08, 00:11:00,VALID,918.089,VALID,0,VALID,97.8334,VALID,0,VALID,19.4005,VALID,215,VALID,0.755345,
2000-09-08, 00:12:00,VALID,918.088,VALID,0,VALID,97.7508,VALID,0,VALID,19.3782,VALID,232,VALID,0.663462,
2000-09-08, 00:13:00,VALID,918.083,VALID,0,VALID,97.9848,VALID,0,VALID,19.3911,VALID,220,VALID,0.898026,
2000-09-08, 00:14:00,VALID,918.058,VALID,0,VALID,98.1272,VALID,0,VALID,19.4008,VALID,231,VALID,0.649439,
2000-09-08, 00:15:00,VALID,918.054,VALID,0,VALID,98.2264,VALID,-0.0339617,VALID,19.4204,VALID,217,VALID,0.913651,
2000-09-08, 00:16:00,VALID,918.058,VALID,0,VALID,98.3179,VALID,-0.0509425,VALID,19.4433,VALID,205,VALID,0.802284,
2000-09-08, 00:17:00,VALID,918.063,VALID,0,VALID,98.3891,VALID,-0.0169808,VALID,19.4497,VALID,192,VALID,0.762952,
2000-09-08, 00:18:00,VALID,918.065,VALID,0,VALID,98.3955,VALID,0,VALID,19.45,VALID,180,VALID,0.640425,
2000-09-08, 00:19:00,VALID,918.07,VALID,0,VALID,98.2594,VALID,-0.0169808,VALID,19.3757,VALID,182,VALID,0.724918,
2000-09-08, 00:20:00,VALID,918.08,VALID,0,VALID,98.4464,VALID,-0.0169808,VALID,19.3749,VALID,184,VALID,0.838742,
2000-09-08, 00:21:00,VALID,918.094,VALID,0,VALID,98.6765,VALID,-0.0509425,VALID,19.4172,VALID,175,VALID,1.1396,
2000-09-08, 00:22:00,VALID,918.085,VALID,0,VALID,98.7248,VALID,-0.0169808,VALID,19.4527,VALID,204,VALID,1.01142,
2000-09-08, 00:23:00,VALID,918.097,VALID,0,VALID,98.7159,VALID,-0.0169808,VALID,19.4438,VALID,191,VALID,0.707854,
2000-09-08, 00:24:00,VALID,918.109,VALID,0,VALID,98.7223,VALID,0,VALID,19.4336,VALID,186,VALID,0.685096,
2000-09-08, 00:25:00,VALID,918.123,VALID,0,VALID,98.7554,VALID,-0.0339617,VALID,19.4269,VALID,213,VALID,0.827508,
2000-09-08, 00:26:00,VALID,918.113,VALID,0,VALID,98.7655,VALID,-0.0169808,VALID,19.4306,VALID,178,VALID,0.903245,
2000-09-08, 00:27:00,VALID,918.113,VALID,0,VALID,98.735,VALID,0,VALID,19.4045,VALID,194,VALID,0.715049,
2000-09-08, 00:28:00,VALID,918.104,VALID,0,VALID,98.7274,VALID,0,VALID,19.3685,VALID,197,VALID,0.851563,
2000-09-08, 00:29:00,VALID,918.088,VALID,0,VALID,98.7541,VALID,-0.0169808,VALID,19.3625,VALID,213,VALID,0.847451,
2000-09-08, 00:30:00,VALID,918.071,VALID,0,VALID,98.8367,VALID,0,VALID,19.3722,VALID,226,VALID,0.782252,
2000-09-08, 00:31:00,VALID,918.037,VALID,0,VALID,98.9079,VALID,0,VALID,19.372,VALID,211,VALID,1.11266,
2000-09-08, 00:32:00,VALID,918.02,VALID,0,VALID,98.9207,VALID,-0.0169808,VALID,19.3851,VALID,220,VALID,1.11739,
2000-09-08, 00:33:00,VALID,917.992,VALID,0,VALID,98.9652,VALID,-0.0169808,VALID,19.3819,VALID,208,VALID,1.04502,
2000-09-08, 00:34:00,VALID,917.983,VALID,0,VALID,98.9677,VALID,-0.0339617,VALID,19.3722,VALID,196,VALID,0.654046,
2000-09-08, 00:35:00,VALID,917.966,VALID,0,VALID,99.0046,VALID,-0.0339617,VALID,19.369,VALID,191,VALID,1.00082,
2000-09-08, 00:36:00,VALID,917.949,VALID,0,VALID,99.0427,VALID,-0.0509425,VALID,19.3787,VALID,192,VALID,0.76863,
2000-09-08, 00:37:00,VALID,917.944,VALID,0,VALID,99.0809,VALID,0,VALID,19.3682,VALID,219,VALID,1.67105,
2000-09-08, 00:38:00,VALID,917.93,VALID,0,VALID,99.1457,VALID,0,VALID,19.3881,VALID,212,VALID,1.44131,
2000-09-08, 00:39:00,VALID,917.922,VALID,0,VALID,99.1813,VALID,0,VALID,19.4107,VALID,226,VALID,0.776727,
2000-09-08, 00:40:00,VALID,917.909,VALID,0,VALID,99.2093,VALID,0,VALID,19.4107,VALID,224,VALID,1.26482,
2000-09-08, 00:41:00,VALID,917.895,VALID,0,VALID,99.2119,VALID,0,VALID,19.4077,VALID,218,VALID,0.999383,
2000-09-08, 00:42:00,VALID,917.905,VALID,0,VALID,99.2335,VALID,-0.0169808,VALID,19.404,VALID,213,VALID,1.01583,
2000-09-08, 00:43:00,VALID,917.896,VALID,0,VALID,99.2551,VALID,0,VALID,19.404,VALID,212,VALID,0.462993,
2000-09-08, 00:44:00,VALID,917.889,VALID,0,VALID,99.2589,VALID,-0.0169808,VALID,19.4077,VALID,208,VALID,0.716146,
2000-09-08, 00:45:00,VALID,917.872,VALID,0,VALID,99.2818,VALID,0,VALID,19.4077,VALID,225,VALID,1.24445,
2000-09-08, 00:46:00,VALID,917.851,VALID,0,VALID,99.3009,VALID,0,VALID,19.3941,VALID,219,VALID,0.616186,
2000-09-08, 00:47:00,VALID,917.829,VALID,0,VALID,99.3212,VALID,0,VALID,19.411,VALID,183,VALID,0.474301,
2000-09-08, 00:48:00,VALID,917.804,VALID,0,VALID,99.3085,VALID,0,VALID,19.4045,VALID,196,VALID,0.665465,
2000-09-08, 00:49:00,VALID,917.791,VALID,0,VALID,99.2996,VALID,0,VALID,19.3883,VALID,202,VALID,0.353002,
2000-09-08, 00:50:00,VALID,917.771,VALID,0,VALID,99.3199,VALID,0,VALID,19.3787,VALID,197,VALID,0.219351,
2000-09-08, 00:51:00,VALID,917.733,VALID,0,VALID,99.3403,VALID,-0.0339617,VALID,19.3819,VALID,194,VALID,0.0127467,
2000-09-08, 00:52:00,VALID,917.715,VALID,0,VALID,99.3517,VALID,-0.0339617,VALID,19.3891,VALID,189,VALID,0,
2000-09-08, 00:53:00,VALID,917.707,VALID,0,VALID,99.3632,VALID,0,VALID,19.3819,VALID,186,VALID,0,
2000-09-08, 00:54:00,VALID,917.697,VALID,0,VALID,99.3797,VALID,0,VALID,19.3918,VALID,186,VALID,0,
2000-09-08, 00:55:00,VALID,917.686,VALID,0,VALID,99.3644,VALID,-0.0169808,VALID,19.3854,VALID,190,VALID,0,
2000-09-08, 00:56:00,VALID,917.694,VALID,0,VALID,99.3556,VALID,0,VALID,19.3787,VALID,194,VALID,0,
2000-09-08, 00:57:00,VALID,917.688,VALID,0,VALID,99.3721,VALID,0,VALID,19.3749,VALID,207,VALID,0,
2000-09-08, 00:58:00,VALID,917.684,VALID,0,VALID,99.395,VALID,0,VALID,19.3911,VALID,205,VALID,0,
2000-09-08, 00:59:00,VALID,917.66,VALID,0,VALID,99.3886,VALID,0,VALID,19.4045,VALID,190,VALID,0,
2000-09-08, 01:00:00,VALID,917.638,VALID,0,VALID,99.381,VALID,0,VALID,19.4107,VALID,192,VALID,0,
2000-09-08, 01:01:00,VALID,917.619,VALID,0,VALID,99.3835,VALID,0,VALID,19.4072,VALID,190,VALID,0,
2000-09-08, 01:02:00,VALID,917.584,VALID,0,VALID,99.3886,VALID,0.0169808,VALID,19.4336,VALID,184,VALID,0,
2000-09-08, 01:03:00,VALID,917.566,VALID,0,VALID,99.3581,VALID,0.0169808,VALID,19.4137,VALID,190,VALID,0,
2000-09-08, 01:04:00,VALID,917.542,VALID,0,VALID,99.339,VALID,0,VALID,19.4043,VALID,184,VALID,0,
2000-09-08, 01:05:00,VALID,917.51,VALID,0,VALID,99.3556,VALID,0,VALID,19.408,VALID,192,VALID,0,
2000-09-08, 01:06:00,VALID,917.494,VALID,0,VALID,99.395,VALID,0,VALID,19.4303,VALID,225,VALID,0,
2000-09-08, 01:07:00,VALID,917.481,VALID,0,VALID,99.4229,VALID,0,VALID,19.4495,VALID,226,VALID,0,
2000-09-08, 01:08:00,VALID,917.479,VALID,0,VALID,99.4344,VALID,0,VALID,19.4887,VALID,253,VALID,0,
2000-09-08, 01:09:00,VALID,917.481,VALID,0,VALID,99.4458,VALID,-0.0169808,VALID,19.5012,VALID,227,VALID,0.0984786,
2000-09-08, 01:10:00,VALID,917.476,VALID,0,VALID,99.4268,VALID,0,VALID,19.5074,VALID,234,VALID,0.48758,
2000-09-08, 01:11:00,VALID,917.483,VALID,0,VALID,99.4522,VALID,0,VALID,19.5369,VALID,230,VALID,0.431538,
2000-09-08, 01:12:00,VALID,917.493,VALID,0,VALID,99.4446,VALID,0,VALID,19.5434,VALID,239,VALID,0.610377,
2000-09-08, 01:13:00,VALID,917.492,VALID,0,VALID,99.4039,VALID,0,VALID,19.5404,VALID,227,VALID,0.466077,
2000-09-08, 01:14:00,VALID,917.477,VALID,0,VALID,99.3988,VALID,-0.0169808,VALID,19.5307,VALID,207,VALID,0.595152,
2000-09-08, 01:15:00,VALID,917.472,VALID,0,VALID,99.3835,VALID,0,VALID,19.4977,VALID,214,VALID,0.553454,
2000-09-08, 01:16:00,VALID,917.456,VALID,0,VALID,99.3466,VALID,0.0169808,VALID,19.482,VALID,186,VALID,0.490385,
2000-09-08, 01:17:00,VALID,917.432,VALID,0,VALID,99.3072,VALID,0,VALID,19.44,VALID,176,VALID,0.639597,
2000-09-08, 01:18:00,VALID,917.419,VALID,0,VALID,99.2958,VALID,0,VALID,19.4047,VALID,155,VALID,0.701923,
2000-09-08, 01:19:00,VALID,917.405,VALID,0,VALID,99.3021,VALID,0.0169808,VALID,19.369,VALID,122,VALID,0.843544,
2000-09-08, 01:20:00,VALID,917.405,VALID,0,VALID,99.3072,VALID,0,VALID,19.3493,VALID,109,VALID,0.892628,
2000-09-08, 01:21:00,VALID,917.406,VALID,0,VALID,99.2665,VALID,0.0169808,VALID,19.3046,VALID,121,VALID,0.698396,
2000-09-08, 01:22:00,VALID,917.414,VALID,0,VALID,99.1991,VALID,-0.0169808,VALID,19.2522,VALID,126,VALID,0.745192,
2000-09-08, 01:23:00,VALID,917.412,VALID,0,VALID,99.1228,VALID,0,VALID,19.1876,VALID,149,VALID,0.874383,
2000-09-08, 01:24:00,VALID,917.421,VALID,0,VALID,99.0262,VALID,-0.0339617,VALID,19.1297,VALID,151,VALID,0.833333,
2000-09-08, 01:25:00,VALID,917.438,VALID,0,VALID,99.0326,VALID,0,VALID,19.0939,VALID,162,VALID,0.39926,
2000-09-08, 01:26:00,VALID,917.435,VALID,0,VALID,98.9995,VALID,0.0169808,VALID,19.0854,VALID,201,VALID,0.735978,
2000-09-08, 01:27:00,VALID,917.43,VALID,0,VALID,98.9715,VALID,-0.0339617,VALID,19.0522,VALID,224,VALID,0.763569,
2000-09-08, 01:28:00,VALID,917.433,VALID,0,VALID,98.913,VALID,0,VALID,19.0266,VALID,211,VALID,0.820112,
2000-09-08, 01:29:00,VALID,917.433,VALID,0,VALID,98.8647,VALID,-0.0169808,VALID,19.0007,VALID,214,VALID,1.11266,
2000-09-08, 01:30:00,VALID,917.407,VALID,0,VALID,98.8024,VALID,0,VALID,18.9945,VALID,208,VALID,0.83734,
2000-09-08, 01:31:00,VALID,917.4,VALID,0,VALID,98.7897,VALID,0,VALID,18.9788,VALID,212,VALID,0.67722,
2000-09-08, 01:32:00,VALID,917.368,VALID,0,VALID,98.674,VALID,0,VALID,18.9627,VALID,178,VALID,0.513421,
2000-09-08, 01:33:00,VALID,917.358,VALID,0,VALID,98.4947,VALID,0,VALID,18.9239,VALID,161,VALID,0.480263,
2000-09-08, 01:34:00,VALID,917.36,VALID,0,VALID,98.3446,VALID,-0.0169808,VALID,18.8914,VALID,165,VALID,0.570513,
2000-09-08, 01:35:00,VALID,917.357,VALID,0,VALID,98.2709,VALID,-0.0169808,VALID,18.8884,VALID,178,VALID,0.443873,
2000-09-08, 01:36:00,VALID,917.373,VALID,0,VALID,98.1335,VALID,0,VALID,18.8561,VALID,211,VALID,0.469551,
2000-09-08, 01:37:00,VALID,917.38,VALID,0,VALID,98.117,VALID,-0.0169808,VALID,18.8298,VALID,235,VALID,0.520559,
2000-09-08, 01:38:00,VALID,917.38,VALID,0,VALID,98.1513,VALID,0,VALID,18.8333,VALID,219,VALID,0.276643,
2000-09-08, 01:39:00,VALID,917.386,VALID,0,VALID,98.1145,VALID,0,VALID,18.827,VALID,226,VALID,0.13898,
2000-09-08, 01:40:00,VALID,917.393,VALID,0,VALID,98.1157,VALID,0,VALID,18.8106,VALID,223,VALID,0.145232,
2000-09-08, 01:41:00,VALID,917.382,VALID,0,VALID,98.103,VALID,-0.0169808,VALID,18.8114,VALID,223,VALID,0,
2000-09-08, 01:42:00,VALID,917.385,VALID,0,VALID,98.0878,VALID,-0.0339617,VALID,18.8047,VALID,223,VALID,0.159255,
2000-09-08, 01:43:00,VALID,917.383,VALID,0,VALID,98.1043,VALID,-0.0509425,VALID,18.782,VALID,215,VALID,0.392475,
2000-09-08, 01:44:00,VALID,917.364,VALID,0,VALID,98.1081,VALID,0,VALID,18.7922,VALID,206,VALID,0.225761,
2000-09-08, 01:45:00,VALID,917.347,VALID,0,VALID,98.0267,VALID,-0.0169808,VALID,18.7398,VALID,204,VALID,0.434211,
2000-09-08, 01:46:00,VALID,917.326,VALID,0,VALID,98.1221,VALID,0.0169808,VALID,18.7336,VALID,167,VALID,0.477364,
2000-09-08, 01:47:00,VALID,917.302,VALID,0,VALID,97.9034,VALID,-0.0169808,VALID,18.666,VALID,163,VALID,0.321752,
2000-09-08, 01:48:00,VALID,917.276,VALID,0,VALID,97.925,VALID,0,VALID,18.6339,VALID,179,VALID,0.390024,
2000-09-08, 01:49:00,VALID,917.254,VALID,0,VALID,98.0585,VALID,-0.0339617,VALID,18.6402,VALID,182,VALID,0.180921,
2000-09-08, 01:50:00,VALID,917.239,VALID,0,VALID,97.9987,VALID,-0.0339617,VALID,18.6076,VALID,211,VALID,0.0408654,
2000-09-08, 01:51:00,VALID,917.23,VALID,0,VALID,98.1882,VALID,-0.0339617,VALID,18.5887,VALID,233,VALID,0.790707,
2000-09-08, 01:52:00,VALID,917.233,VALID,0,VALID,98.4006,VALID,-0.0169808,VALID,18.5979,VALID,223,VALID,0.876202,
2000-09-08, 01:53:00,VALID,917.222,VALID,0,VALID,98.482,VALID,-0.0849042,VALID,18.6083,VALID,226,VALID,0.82977,
2000-09-08, 01:54:00,VALID,917.21,VALID,0,VALID,98.6053,VALID,-0.0509425,VALID,18.6185,VALID,227,VALID,0.755609,
2000-09-08, 01:55:00,VALID,917.218,VALID,0,VALID,98.6396,VALID,-0.0509425,VALID,18.6081,VALID,209,VALID,0.954564,
2000-09-08, 01:56:00,VALID,917.196,VALID,0,VALID,98.7312,VALID,-0.0509425,VALID,18.6081,VALID,204,VALID,0.853766,
2000-09-08, 01:57:00,VALID,917.182,VALID,0,VALID,98.8482,VALID,-0.0509425,VALID,18.6404,VALID,217,VALID,1.08183,
2000-09-08, 01:58:00,VALID,917.169,VALID,0,VALID,98.8851,VALID,0,VALID,18.6307,VALID,220,VALID,0.847356,
2000-09-08, 01:59:00,VALID,917.141,VALID,0,VALID,98.9207,VALID,-0.0169808,VALID,18.6265,VALID,217,VALID,0.976768,
2000-09-08, 02:00:00,VALID,917.126,VALID,0,VALID,98.9537,VALID,0.0339617,VALID,18.6226,VALID,213,VALID,1.0629,
2000-09-08, 02:01:00,VALID,917.111,VALID,0,VALID,98.9537,VALID,0.0849042,VALID,18.6132,VALID,200,VALID,0.718133,
2000-09-08, 02:02:00,VALID,917.098,VALID,0,VALID,98.9766,VALID,0.0679233,VALID,18.594,VALID,190,VALID,0.763622,
2000-09-08, 02:03:00,VALID,917.081,VALID,0,VALID,99.0033,VALID,0.0509425,VALID,18.5841,VALID,188,VALID,0.889597,
2000-09-08, 02:04:00,VALID,917.05,VALID,0,VALID,99.0262,VALID,0.0509425,VALID,18.5516,VALID,216,VALID,1.4349,
2000-09-08, 02:05:00,VALID,917.016,VALID,0,VALID,99.1915,VALID,0.0679233,VALID,18.6065,VALID,217,VALID,1.58306,
2000-09-08, 02:06:00,VALID,917.013,VALID,0,VALID,99.2691,VALID,0.0849042,VALID,18.6584,VALID,218,VALID,1.17588,
2000-09-08, 02:07:00,VALID,916.999,VALID,0,VALID,99.2615,VALID,0.101885,VALID,18.6609,VALID,227,VALID,1.43072,
2000-09-08, 02:08:00,VALID,916.992,VALID,0,VALID,99.2068,VALID,0.0509425,VALID,18.6551,VALID,206,VALID,1.06971,
2000-09-08, 02:09:00,VALID,916.989,VALID,0,VALID,99.1915,VALID,-0.0509425,VALID,18.6436,VALID,205,VALID,1.26316,
2000-09-08, 02:10:00,VALID,916.987,VALID,0,VALID,99.2169,VALID,-0.0169808,VALID,18.6566,VALID,221,VALID,1.07572,
2000-09-08, 02:11:00,VALID,916.999,VALID,0,VALID,99.1953,VALID,-0.0169808,VALID,18.6335,VALID,213,VALID,1.02508,
2000-09-08, 02:12:00,VALID,916.992,VALID,0,VALID,99.1597,VALID,0,VALID,18.6042,VALID,209,VALID,0.880208,
2000-09-08, 02:13:00,VALID,916.98,VALID,0,VALID,99.1699,VALID,0,VALID,18.6014,VALID,204,VALID,0.816612,
2000-09-08, 02:14:00,VALID,916.967,VALID,0,VALID,99.1686,VALID,-0.0169808,VALID,18.5952,VALID,198,VALID,0.901643,
2000-09-08, 02:15:00,VALID,916.959,VALID,0,VALID,99.1356,VALID,0,VALID,18.5885,VALID,197,VALID,1.044,
2000-09-08, 02:16:00,VALID,916.519,VALID,0,VALID,99.2144,VALID,-0.0169808,VALID,18.6019,VALID,194,VALID,1.49099,
2000-09-08, 02:17:00,VALID,916.944,VALID,0,VALID,99.175,VALID,-0.0169808,VALID,18.6019,VALID,199,VALID,1.41838,
2000-09-08, 02:18:00,VALID,916.919,VALID,0,VALID,99.1635,VALID,-0.0339617,VALID,18.5979,VALID,190,VALID,0.968349,
2000-09-08, 02:19:00,VALID,916.902,VALID,0,VALID,99.1508,VALID,0,VALID,18.5957,VALID,202,VALID,1.51049,
2000-09-08, 02:20:00,VALID,916.878,VALID,0,VALID,99.1406,VALID,-0.0509425,VALID,18.5818,VALID,214,VALID,1.24639,
2000-09-08, 02:21:00,VALID,916.875,VALID,0,VALID,99.1038,VALID,0,VALID,18.5855,VALID,214,VALID,1.36719,
2000-09-08, 02:22:00,VALID,916.876,VALID,0,VALID,99.0936,VALID,-0.0509425,VALID,18.5825,VALID,208,VALID,1.53265,
2000-09-08, 02:23:00,VALID,916.888,VALID,0,VALID,99.0923,VALID,-0.0679233,VALID,18.5664,VALID,193,VALID,1.17887,
2000-09-08, 02:24:00,VALID,916.904,VALID,0,VALID,99.105,VALID,-0.0169808,VALID,18.5532,VALID,224,VALID,1.5004,
2000-09-08, 02:25:00,VALID,916.922,VALID,0,VALID,99.1127,VALID,-0.0169808,VALID,18.5597,VALID,212,VALID,1.70724,
2000-09-08, 02:26:00,VALID,916.943,VALID,0,VALID,99.1,VALID,-0.0169808,VALID,18.5405,VALID,215,VALID,1.86518,
2000-09-08, 02:27:00,VALID,916.956,VALID,0,VALID,99.1216,VALID,-0.0339617,VALID,18.5405,VALID,212,VALID,1.77323,
2000-09-08, 02:28:00,VALID,916.967,VALID,0,VALID,99.1559,VALID,-0.0339617,VALID,18.5246,VALID,219,VALID,1.41526,
2000-09-08, 02:29:00,VALID,916.984,VALID,0,VALID,99.1915,VALID,-0.0509425,VALID,18.511,VALID,220,VALID,1.42085,
2000-09-08, 02:30:00,VALID,916.976,VALID,0,VALID,99.2093,VALID,-0.0339617,VALID,18.5244,VALID,203,VALID,1.14984,
2000-09-08, 02:31:00,VALID,916.984,VALID,0,VALID,99.2157,VALID,-0.0169808,VALID,18.5179,VALID,202,VALID,1.17599,
2000-09-08, 02:32:00,VALID,916.974,VALID,0,VALID,99.2602,VALID,-0.0849042,VALID,18.5147,VALID,191,VALID,1.17548,
2000-09-08, 02:33:00,VALID,916.955,VALID,0,VALID,99.222,VALID,-0.0509425,VALID,18.4888,VALID,215,VALID,1.14494,
2000-09-08, 02:34:00,VALID,916.936,VALID,0,VALID,99.2678,VALID,-0.0509425,VALID,18.4787,VALID,206,VALID,0.804087,
2000-09-08, 02:35:00,VALID,916.91,VALID,0,VALID,99.2678,VALID,-0.0509425,VALID,18.4794,VALID,198,VALID,1.17393,
2000-09-08, 02:36:00,VALID,916.913,VALID,0,VALID,99.2882,VALID,-0.0339617,VALID,18.4729,VALID,203,VALID,1.08674,
2000-09-08, 02:37:00,VALID,916.907,VALID,0,VALID,99.2589,VALID,-0.0339617,VALID,18.4568,VALID,181,VALID,1.45645,
2000-09-08, 02:38:00,VALID,916.891,VALID,0,VALID,99.2487,VALID,-0.0339617,VALID,18.4439,VALID,182,VALID,1.10296,
2000-09-08, 02:39:00,VALID,916.891,VALID,0,VALID,99.203,VALID,-0.0509425,VALID,18.4079,VALID,182,VALID,1.18421,
2000-09-08, 02:40:00,VALID,916.9,VALID,0,VALID,99.2195,VALID,-0.0849042,VALID,18.3922,VALID,172,VALID,1.32091,
2000-09-08, 02:41:00,VALID,916.897,VALID,0,VALID,99.2322,VALID,-0.0169808,VALID,18.382,VALID,179,VALID,0.990543,
2000-09-08, 02:42:00,VALID,916.9,VALID,0,VALID,99.2971,VALID,-0.0339617,VALID,18.3984,VALID,194,VALID,1.21274,
2000-09-08, 02:43:00,VALID,916.918,VALID,0,VALID,99.264,VALID,-0.0509425,VALID,18.4187,VALID,190,VALID,0.861842,
2000-09-08, 02:44:00,VALID,916.942,VALID,0,VALID,99.2271,VALID,-0.0849042,VALID,18.3922,VALID,186,VALID,1.32592,
2000-09-08, 02:45:00,VALID,916.965,VALID,0,VALID,99.2907,VALID,-0.0679233,VALID,18.4152,VALID,224,VALID,1.99219,
2000-09-08, 02:46:00,VALID,916.967,VALID,0,VALID,99.3327,VALID,-0.0509425,VALID,18.4374,VALID,222,VALID,1.86979,
2000-09-08, 02:47:00,VALID,916.976,VALID,0,VALID,99.3034,VALID,-0.0509425,VALID,18.4503,VALID,204,VALID,0.988898,
2000-09-08, 02:48:00,VALID,916.98,VALID,0,VALID,99.2386,VALID,-0.0509425,VALID,18.4277,VALID,218,VALID,1.45753,
2000-09-08, 02:49:00,VALID,916.977,VALID,0,VALID,99.2144,VALID,-0.0169808,VALID,18.4051,VALID,190,VALID,1.19675,
2000-09-08, 02:50:00,VALID,916.978,VALID,0,VALID,99.2004,VALID,-0.0339617,VALID,18.3894,VALID,185,VALID,0.706731,
2000-09-08, 02:51:00,VALID,917.004,VALID,0,VALID,99.2246,VALID,-0.0509425,VALID,18.3862,VALID,189,VALID,1.19984,
2000-09-08, 02:52:00,VALID,916.991,VALID,0,VALID,99.2856,VALID,-0.0339617,VALID,18.3862,VALID,223,VALID,1.48798,
2000-09-08, 02:53:00,VALID,916.986,VALID,0,VALID,99.3174,VALID,-0.0339617,VALID,18.4053,VALID,213,VALID,1.441,
2000-09-08, 02:54:00,VALID,916.96,VALID,0,VALID,99.2793,VALID,-0.0509425,VALID,18.3954,VALID,210,VALID,1.0607,
2000-09-08, 02:55:00,VALID,916.943,VALID,0,VALID,99.292,VALID,-0.0169808,VALID,18.3862,VALID,217,VALID,0.795641,
2000-09-08, 02:56:00,VALID,916.922,VALID,0,VALID,99.353,VALID,-0.0849042,VALID,18.3756,VALID,228,VALID,0.966747,
2000-09-08, 02:57:00,VALID,916.936,VALID,0,VALID,99.339,VALID,-0.0679233,VALID,18.3926,VALID,223,VALID,0.712788,
2000-09-08, 02:58:00,VALID,916.936,VALID,0,VALID,99.3492,VALID,-0.0849042,VALID,18.379,VALID,226,VALID,1.09475,
2000-09-08, 02:59:00,VALID,916.934,VALID,0,VALID,99.3339,VALID,-0.0509425,VALID,18.3693,VALID,234,VALID,0.70148,
2000-09-08, 03:00:00,VALID,916.928,VALID,0,VALID,99.3517,VALID,-0.0849042,VALID,18.376,VALID,241,VALID,0.969151,
2000-09-08, 03:01:00,VALID,916.93,VALID,0,VALID,99.3772,VALID,-0.0509425,VALID,18.3666,VALID,231,VALID,1.40049,
2000-09-08, 03:02:00,VALID,916.928,VALID,0,VALID,99.4051,VALID,-0.0509425,VALID,18.3892,VALID,222,VALID,1.66166,
2000-09-08, 03:03:00,VALID,916.927,VALID,0,VALID,99.4039,VALID,-0.0339617,VALID,18.3857,VALID,217,VALID,1.64021,
2000-09-08, 03:04:00,VALID,916.918,VALID,0,VALID,99.4115,VALID,-0.0339617,VALID,18.3929,VALID,234,VALID,1.31831,
2000-09-08, 03:05:00,VALID,916.926,VALID,0,VALID,99.4458,VALID,-0.0169808,VALID,18.3825,VALID,218,VALID,1.79749,
2000-09-08, 03:06:01,VALID,916.908,VALID,0,VALID,99.4713,VALID,-0.0509425,VALID,18.3823,VALID,213,VALID,1.64784,
2000-09-08, 03:07:00,VALID,916.933,VALID,0,VALID,99.4738,VALID,-0.0509425,VALID,18.3922,VALID,220,VALID,1.0368,
2000-09-08, 03:08:01,VALID,916.529,VALID,0,VALID,99.4675,VALID,-0.0509425,VALID,18.3691,VALID,221,VALID,1.85397,
2000-09-08, 03:09:00,VALID,916.963,VALID,0,VALID,99.4751,VALID,-0.101885,VALID,18.3601,VALID,222,VALID,1.42064,
2000-09-08, 03:10:01,VALID,916.968,VALID,0,VALID,99.5056,VALID,-0.0509425,VALID,18.3502,VALID,220,VALID,1.36418,
2000-09-08, 03:11:00,VALID,916.984,VALID,0,VALID,99.5031,VALID,-0.0339617,VALID,18.3566,VALID,217,VALID,1.42907,
2000-09-08, 03:12:00,VALID,917.004,VALID,0,VALID,99.5158,VALID,-0.0509425,VALID,18.3539,VALID,212,VALID,1.29367,
2000-09-08, 03:13:00,VALID,917.016,VALID,0,VALID,99.5425,VALID,-0.0509425,VALID,18.3599,VALID,213,VALID,1.79235,
2000-09-08, 03:14:01,VALID,917.004,VALID,0,VALID,99.5616,VALID,-0.0339617,VALID,18.3659,VALID,224,VALID,1.53205,
2000-09-08, 03:15:00,VALID,917.01,VALID,0,VALID,99.5832,VALID,0.0849042,VALID,18.3645,VALID,209,VALID,1.75781,
2000-09-08, 03:16:01,VALID,917.013,VALID,0,VALID,99.5717,VALID,0.0339617,VALID,18.3647,VALID,208,VALID,1.6891,
2000-09-08, 03:17:00,VALID,917.026,VALID,0,VALID,99.5704,VALID,0.0849042,VALID,18.362,VALID,203,VALID,1.44243,
2000-09-08, 03:18:01,VALID,917.006,VALID,0,VALID,99.5921,VALID,0.0509425,VALID,18.3555,VALID,208,VALID,1.79848,
2000-09-08, 03:19:00,VALID,916.994,VALID,0,VALID,99.6188,VALID,0.0509425,VALID,18.3585,VALID,203,VALID,1.41879,
2000-09-08, 03:20:01,VALID,916.97,VALID,0,VALID,99.6124,VALID,0.0339617,VALID,18.3548,VALID,220,VALID,1.09475,
2000-09-08, 03:21:00,VALID,916.95,VALID,0,VALID,99.6226,VALID,0.101885,VALID,18.3647,VALID,219,VALID,1.26953,
2000-09-08, 03:22:00,VALID,916.926,VALID,0,VALID,99.6111,VALID,0.0679233,VALID,18.3518,VALID,177,VALID,1.43029,
2000-09-08, 03:23:00,VALID,916.927,VALID,0,VALID,99.6353,VALID,0.0849042,VALID,18.3456,VALID,175,VALID,1.27734,
2000-09-08, 03:24:00,VALID,916.899,VALID,0,VALID,99.6468,VALID,0.0509425,VALID,18.3587,VALID,194,VALID,0.785056,
2000-09-08, 03:25:00,VALID,916.897,VALID,0,VALID,99.6417,VALID,0.0849042,VALID,18.3456,VALID,175,VALID,1.17023,
2000-09-08, 03:26:01,VALID,916.883,VALID,0,VALID,99.6556,VALID,0.101885,VALID,18.352,VALID,211,VALID,0.936298,
2000-09-08, 03:27:00,VALID,916.883,VALID,0,VALID,99.6633,VALID,0.0169808,VALID,18.3483,VALID,198,VALID,0.511719,
2000-09-08, 03:28:01,VALID,916.872,VALID,0,VALID,99.6709,VALID,0.0849042,VALID,18.355,VALID,218,VALID,0.411458,
2000-09-08, 03:29:00,VALID,916.854,VALID,0,VALID,99.6773,VALID,0,VALID,18.356,VALID,224,VALID,0.41509,
2000-09-08, 03:30:01,VALID,916.857,VALID,0,VALID,99.6671,VALID,-0.0339617,VALID,18.344,VALID,199,VALID,0.767829,
2000-09-08, 03:31:00,VALID,916.859,VALID,0,VALID,99.6544,VALID,-0.0849042,VALID,18.3343,VALID,170,VALID,0.285567,
2000-09-08, 03:32:01,VALID,916.842,VALID,0,VALID,99.6607,VALID,-0.0679233,VALID,18.328,VALID,204,VALID,0.619992,
2000-09-08, 03:33:00,VALID,916.857,VALID,0,VALID,99.6404,VALID,-0.0679233,VALID,18.299,VALID,183,VALID,0.832031,
2000-09-08, 03:34:01,VALID,916.864,VALID,0,VALID,99.634,VALID,-0.0679233,VALID,18.2757,VALID,213,VALID,0.454928,